GORIZONT 13 [-]

Last updated on Dec. 5, 2020, 6:14 a.m. UTC

1 17083U 86090A   20339.48165508 -.00000062  00000-0  00000-0 0  9995
2 17083  14.9209 343.5263 0016895 327.4798  24.7355  0.96725236 99094
UTC
Height (km)
Latitude
Longitude
Inclination
Orbital Period
UTC large
Height (km)
Speed (km/s)
/
Latitude / Longitude
Inclination (degrees)
Orbital Period (minutes)
Azimuth
Elevation
Range (km)
Doppler Factor
iOS Compass Heading
iOS Angle

Next 30 passes for location: Hong Kong

Rise time Rise Azimuth (degrees) Set time Set Azimuth (degrees) Duration Max altitude (degrees)

No matching passes for this satellites